Location: Newark
(19.2128°S, 49.7858°W)
Time: 02:07:02
(UTC+00:00)

Envisat - Pass Details

Date: 29 August 2019
Orbit: 764 x 766 km, 98.1° (Epoch: 17 October)

Event Time Altitude Azimuth Distance (km) Brightness Sun altitude
Rises 22:41:29 0° 181° (S) 3,249 6.2 -22.1°
Reaches altitude 10° 22:43:57 10° 189° (S) 2,317 5.5 -22.7°
Maximum altitude 22:48:37 37° 255° (WSW) 1,178 4.4 -23.8°
Drops below altitude 10° 22:53:16 10° 321° (NW) 2,297 5.9 -24.9°
Sets 22:55:42 0° 329° (NNW) 3,216 6.6 -25.5°
